Location: Napier
(39.4830°S, 176.9170°E)
Time: 01:24:01
(UTC+12:00)

SL-27 R/B - Pass Details

Date: 15 August 2020
Orbit: 419 x 471 km, 74.7° (Epoch: 19 September)

Event Time Altitude Azimuth Distance (km) Brightness Sun altitude
Rises 19:08:39 0° 194° (SSW) 2,529 6.3 -18.7°
Reaches altitude 10° 19:10:49 10° 189° (S) 1,636 5.3 -19.1°
Enters shadow 19:13:30 42° 161° (SSE) 680 3.1 -19.6°
